Regional Weather Roundup
Issued by NWS

Home | Current Version | Previous Version | Text Only | Print | Product List | Glossary Off
Versions: 1 2 3 4 5 6 7 8 9 10 11 12 13 14 15 16 17 18 19 20 21 22 23 24 25 26 27 28 29 30 31 32 33 34 35 36 37 38 39 40 41 42 43 44 45 46 47 48 49 50

691
ASUS44 KMEG 090410
RWRTN
TENNESSEE HOURLY STATE WEATHER ROUNDUP
NATIONAL WEATHER SERVICE MEMPHIS TN
1000 PM CST THU DEC 08 2016

TNZ002-004-019-021-049-052-054-088>092-090500-
WEST TENNESSEE

CITY           SKY/WX    TMP DP  RH WIND       PRES   REMARKS
MEMPHIS INTL   PTCLDY    30  17  58 NW5       30.56S WCI  25
NWS MEMPHIS      N/A     26 N/A N/A MISG        N/A
JACKSON        CLEAR     23  19  85 CALM      30.55S
DYERSBURG      CLEAR     28  18  64 N6        30.56S WCI  22
UNION CITY     CLEAR     21  16  79 CALM      30.55S
PARIS          CLEAR     21  12  68 CALM      30.54S
HUNTINGDON     CLEAR     27  18  69 CALM      30.53S
LEXINGTON      CLEAR     27  14  59 NW5       30.52S WCI  21
$$

TNZ008-025-027-028-033-062-065-066-090500-
NORTH MIDDLE TENNESSEE

CITY           SKY/WX    TMP DP  RH WIND       PRES   REMARKS
NASHVILLE      CLEAR     28  15  58 N6        30.52R WCI  22
PORTLAND       CLEAR     25  18  74 NW9       30.49S WCI  15
CLARKSVILLE    CLEAR     24  15  68 N6        30.53R WCI  17
SMYRNA         CLEAR     29  18  63 N16       30.52R WCI  17
GALLATIN       CLEAR     27  16  63 NW7       30.54R WCI  19
CROSSVILLE     CLEAR     23  13  65 NW8       30.40R WCI  14
$$

TNZ061-075-076-078-094-096-097-090500-
SOUTH MIDDLE TENNESSEE

CITY           SKY/WX    TMP DP  RH WIND       PRES   REMARKS
FAYETTEVILLE   CLEAR     30  16  55 N7        30.47R WCI  23
TULLAHOMA      CLEAR     25  12  58 N8        30.46R WCI  16
WINCHESTER     CLEAR     27  16  63 N6        30.46S WCI  20
MCMINNVILLE    CLEAR     27  16  63 CALM        N/A
COLUMBIA       CLEAR     28  16  59 CALM      30.49S
SHELBYVILLE    CLEAR     28  18  64 NW3       30.50R
$$

TNZ017-018-042-046-047-090500-
NORTHEAST TENNESSEE

CITY           SKY/WX    TMP DP  RH WIND       PRES   REMARKS
TRI CITIES     PTCLDY    30  13  49 NW12      30.32R WCI  20
ELIZABETHTON   CLEAR     30  14  51 VRB6      30.31R WCI  24
$$

TNZ012-013-036-069-073-074-090500-
CENTRAL EAST TENNESSEE

CITY           SKY/WX    TMP DP  RH WIND       PRES   REMARKS
KNOXVILLE      CLOUDY    33  17  51 VRB5      30.39R WCI  29
OAK RIDGE      PTCLDY    32  14  47 N7        30.42R WCI  26
DOWNTOWN KNOXV CLEAR     32  18  55 VRB5      30.41R WCI  27
GATLINBURG     CLEAR     28  16  59 CALM      30.39R
MORRISTOWN     CLEAR     30  14  51 N10G17    30.36R WCI  21
JACKSBORO      CLEAR     28  16  59 VRB5G16   30.43R WCI  23
$$

TNZ083-085-099-090500-
SOUTHEAST TENNESSEE

CITY           SKY/WX    TMP DP  RH WIND       PRES   REMARKS
CHATTANOOGA    PTCLDY    34  16  47 N12       30.44R WCI  25
$$

SKY/WX REPORTED AS FAIR MEANS FEW OR NO CLOUDS BELOW
12 THOUSAND FEET.





USA.gov is the U.S. government's official web portal to all federal, state and local government web resources and services.